sat.trackr.live / text

‹ back to catalog

STARLINK-3366

NORAD 51104 · 2022-005A

PAYLOAD ACTIVE UNKNOWN

§ Identity

Operator
Country
US
Launch date
2022-01-19
Launch site
AFETR
Launch vehicle
Mass (kg)
RCS (m²)

Purposes: comms

External: N2YO · Heavens-Above · Gunter

§ Orbital elements

Epoch: 2026-05-25T04:20:00.974976Z

Period
95.44 min
Inclination
53.2148°
Eccentricity
0.0001304
Mean motion
15.08838819 rev/d
Perigee alt
538.8 km
Apogee alt
540.6 km
Semi-major
6,917.9 km
B*
2.0964e-5
RAAN
305.7401°
Arg perigee
82.5095°
Mean anomaly
277.6045°
Rev number
24,042

§ Raw data

STARLINK-33661 51104U 22005A   26145.18056684  .00000046  00000+0  20964-4 0  99902 51104  53.2148 305.7401 0001304  82.5095 277.6045 15.08838819240427

JSON: /api/v1/satellites/51104 · /tle

For live sub-satellite position, see the globe view (requires WebGL).

§ Visibility from observer

Set your observer location to see the next 7 days of passes ≥ 10°. The values pass through the URL so the page stays shareable.

No JS? Fill the form by hand. The geolocation button needs JavaScript.